USA 134

Last updated on Sat Dec 13 2025 00:02:46 GMT+0000 (Coordinated Universal Time)

1 25019U 97065A 25346.18267852 -.00000060 00000+0 00000+0 0 9998 2 25019 12.5614 23.1039 0006530 269.7382 101.7562 1.00269415 31089
UTC large
Height (km)
Speed (km/s)
/
Latitude / Longitude
Inclination (degrees)
Orbital Period (minutes)
Azimuth
Elevation
Range (km)
Doppler Factor

Next 0 passes for location: London (51.5072 / 0.1276)

Sorry there are no passes over London.